Regional Weather Roundup
Issued by NWS

Home | Current Version | Previous Version | Text Only | Print | Product List | Glossary Off
Versions: 1 2 3 4 5 6 7 8 9 10 11 12 13 14 15 16 17 18 19 20 21 22 23 24 25 26 27 28 29 30 31 32 33 34 35 36 37 38 39 40 41 42 43 44 45 46 47 48 49 50

000
ASUS43 KIND 282109
RWRIN

WEATHER ROUNDUP FOR INDIANA
NATIONAL WEATHER SERVICE INDIANAPOLIS IN
500 PM EDT WED SEP 28 2016

NOTE: "FAIR" INDICATES FEW OR NO CLOUDS BELOW 12,000 FEET WITH NO
SIGNIFICANT WEATHER AND/OR OBSTRUCTIONS TO VISIBILITY.

* - STATION DOES NOT REPORT WEATHER SUCH AS PRECIPITATION OR FOG.

+ - STATION NOT QUALITY CONTROLLED BY THE NATIONAL WEATHER SERVICE.
    USE DATA WITH CAUTION...ESPECIALLY DEWPOINT AND RELATIVE
    HUMIDITY OBSERVATIONS.

INZ001>003-010>013-019-020-282200-
NORTHWEST INDIANA

CITY           SKY/WX    TMP DP  RH WIND       PRES   REMARKS
GARY /AIRPORT/ PTSUNNY   61  54  77 NE10G23   29.95
KNOX *+        CLOUDY    57  32  38 N8        29.92R
LA PORTE +     CLOUDY    60  52  74 N8        29.94R
MICHIGAN CITY+ CLOUDY    57  48  72 CALM      29.95R
MONTICELLO +   DRIZZLE   56  48  73 NW10      29.91R
RENSSELAER +   CLOUDY    59  52  77 NW7       29.93R
VALPARAISO     CLOUDY    59  48  67 N7        29.94R

$$

LMZ046-743>745-282200-
SOUTHERN LAKE MICHIGAN

STATION/POSITION TIME  TEMP    WIND        PRES    WAVE
                       AIR SEA DIR/SP/G            HT
                 (UTC) (F)     (DEG/KT/KT) (MB)    (FT)
BURNS HARBOR     2040   60      40/ 13/ 18 1014.2R
MICHIGAN CITY    2040   58      10/ 11/ 12   N/A
5NW MICH CITY    2100   60 66   30/ 12/ 16   N/A     3

$$

INZ004-005-014>016-021>024-282200-
NORTH CENTRAL INDIANA

CITY           SKY/WX    TMP DP  RH WIND       PRES   REMARKS
ELKHART        CLOUDY   N/A N/A N/A N7        29.92R
GOSHEN         LGT RAIN  60  50  69 N9        29.91R
LOGANSPORT +   CLOUDY    61  46  59 NW8       29.90R
PERU/GRISSOM   PTSUNNY   60  51  73 NW8       29.88R
ROCHESTER +    LGT RAIN  59  55  88 N6        29.91R
SOUTH BEND     CLOUDY    61  50  67 N7        29.93R
WARSAW +       LGT RAIN  59  46  63 NW3       29.90R

$$

INZ006>009-017-018-025>027-282200-
NORTHEAST INDIANA

CITY           SKY/WX    TMP DP  RH WIND       PRES   REMARKS
ANGOLA *+        N/A     61  48  63 NE9       29.90R
AUBURN +       CLOUDY    61  50  67 NE5       29.88S
FORT WAYNE     TSTM      56  53  90 E5        29.88R FOG
HUNTINGTON +   CLOUDY    57  55  94 W3        29.89R
KENDALLVILLE + CLOUDY    61  50  67 E5        29.89R

$$

INZ028-029-035-036-043>045-051>053-282200-
WEST CENTRAL INDIANA

CITY           SKY/WX    TMP DP  RH WIND       PRES   REMARKS
CRAWFORDSVL +  CLOUDY    58  49  71 NW10      29.91R
GREENCASTLE +  CLOUDY    61  52  72 NW7G17    29.91R
LAFAYETTE      NOT AVBL
TERRE HAUTE    CLOUDY    64  44  48 N10G20    29.92R

$$

INZ030>032-037>040-046>048-054>057-064-065-282200-
CENTRAL INDIANA

CITY           SKY/WX    TMP DP  RH WIND       PRES   REMARKS
COLUMBUS       LGT RAIN  55  54  94 W13       29.89R FOG
FISHERS *+     CLOUDY    59  55  88 CALM      29.89R
FRANKFORT +    CLOUDY    62  51  67 NW12      29.91R
GREENWOOD *+   CLOUDY    57  55  94 CALM      29.89R
INDIANAPOLIS   CLOUDY    59  54  83 W3        29.88S
-EAGLE CREEK   CLOUDY    62  52  69 N5        29.88R
KOKOMO *+      CLOUDY    60  51  72 NW9       29.90R
MARION +       CLOUDY    60  52  75 NW8       29.89R
MT COMFORT *+  CLOUDY    55  52  88 NW3       29.89R
SHELBYVILLE    RAIN      58  52  80 NW14      29.88R
ZIONSVILLE +   CLOUDY    58  51  78 N7        29.89R

$$

INZ033-034-041-042-049-050-058-059-282200-
EAST CENTRAL INDIANA

CITY           SKY/WX    TMP DP  RH WIND       PRES   REMARKS
MUNCIE         TSTM      61  53  75 VRB7      29.87R

$$

INZ060-061-067>069-081>083-085>088-282200-
SOUTHWEST INDIANA

CITY           SKY/WX    TMP DP  RH WIND       PRES   REMARKS
EVANSVILLE     MOSUNNY   67  47  48 NW13G22   29.92R
HUNTINGBURG *+   N/A     70  48  46 NW15      29.89R
WASHINGTON +   CLOUDY    65  47  51 MISG      29.90R

$$

INZ062-063-066-070>080-084-089>092-282200-
SOUTH CENTRAL AND SOUTHEAST INDIANA

CITY           SKY/WX    TMP DP  RH WIND       PRES   REMARKS
BLOOMINGTON    LGT RAIN  61  53  75 VRB5      29.89R
MADISON *+     PTSUNNY   63  55  77 SW5       29.88S
NORTH VERNON + CLOUDY   N/A N/A N/A SW7       29.87R
SEYMOUR +      TSTM      57  54  88 CALM      29.88R

$$





USA.gov is the U.S. government's official web portal to all federal, state and local government web resources and services.